Regional Weather Roundup
Issued by NWS

Home | Current Version | Previous Version | Text Only | Print | Product List | Glossary Off
Versions: 1 2 3 4 5 6 7 8 9 10 11 12 13 14 15 16 17 18 19 20 21 22 23 24 25 26 27 28 29 30 31 32 33 34 35 36 37 38 39 40 41 42 43 44 45 46 47 48 49 50

000
ASUS43 KMKX 042200
RWRWI

WISCONSIN REGIONAL WEATHER ROUNDUP
NATIONAL WEATHER SERVICE MILWAUKEE/SULLIVAN WI
500 PM CDT TUE AUG 04 2015

NOTE: "FAIR" INDICATES FEW OR NO CLOUDS BELOW 12,000 FEET WITH NO
SIGNIFICANT WEATHER AND/OR OBSTRUCTIONS TO VISIBILITY.

WIZ001-002-006>008-014>016-023>028-042300-
NORTHWEST WISCONSIN

CITY           SKY/WX    TMP DP  RH WIND       PRES   REMARKS
SUPERIOR ARPT  SUNNY     71  55  56 E9        29.97S
ASHLAND        MOSUNNY   71  56  58 NE10      29.99R
HAYWARD        MOSUNNY   75  50  41 VRB6      29.97S
SIREN          MOSUNNY   77  51  39 NW9       29.97S
CUMBERLAND     PTSUNNY   73  52  46 W8        29.98S
RICE LAKE      CLOUDY    74  53  48 W5        29.99R
CHETEK         CLOUDY    75  55  50 CALM      29.97S
LADYSMITH      CLOUDY    73  52  47 W8        29.99S
EAU CLAIRE     NOT AVBL
MENOMONIE      PTSUNNY   79  49  34 NW9       29.97S
NEW RICHMOND   PTSUNNY   75  51  41 NW6       29.98S
OSCEOLA        PTSUNNY   79  52  39 NW8       29.99S
$$

WIZ003>005-009-010-017-018-042300-
NORTH CENTRAL WISCONSIN

CITY           SKY/WX    TMP DP  RH WIND       PRES   REMARKS
MANITOWISH WTR MOSUNNY   69  51  52 N7        29.98F
ARBOR VITAE    MOSUNNY   72  54  52 N10G18    29.98S
WOODRUFF       MOSUNNY   72  54  52 N10G18    29.98S
RHINELANDER    MOSUNNY   70  49  47 NW10      29.99S
EAGLE RIVER    MOSUNNY   69  45  42 NW9       29.97F
LAND O LAKES   MOSUNNY   69  48  46 NW9G18    29.99F
PHILLIPS       MOSUNNY   71  53  53 NW6       29.97F
TOMAHAWK       PTSUNNY   70  52  53 NW5       29.98S
MEDFORD        CLOUDY    71  52  52 NW7       29.99R
MERRILL        NOT AVBL
$$

WIZ029-030-035-036-043>047-042300-
CENTRAL WISCONSIN

CITY           SKY/WX    TMP DP  RH WIND       PRES   REMARKS
WAUSAU         CLOUDY    73  50  44 NW12      29.96S
MOSINEE        NOT AVBL
MARSHFIELD     CLOUDY    75  50  41 NW13      29.98S
STEVENS POINT  CLOUDY    73  51  46 W7        29.98S
WAUPACA        PTSUNNY   79  51  37 W10G17    29.96F
WAUTOMA        NOT AVBL
WISC RAPIDS    PTSUNNY   77  49  37 W15       29.98F
CAMP DOUGLAS   NOT AVBL
$$

WIZ011>013-019>022-031-037>040-048>050-042300-
NORTHEAST WISCONSIN

CITY           SKY/WX    TMP DP  RH WIND       PRES   REMARKS
ANTIGO         CLOUDY    72  49  43 NW13G20   29.97F
SHAWANO        CLOUDY    76  51  41 W7        29.95S
OCONTO         MOSUNNY   76  49  38 N12       29.92S
STURGEON BAY   PTSUNNY   70  54  56 N7        29.97R
GREEN BAY      PTSUNNY   76  55  48 NW8       29.94S
MANITOWOC      NOT AVBL
APPLETON       PTSUNNY   77  48  36 W14       29.96S
CLINTONVILLE   CLOUDY    75  46  35 NW9       29.95R
OSHKOSH        MOSUNNY   77  53  43 NW13      29.95S
$$

WIZ032>034-041-042-053>061-042300-
SOUTHWEST WISCONSIN

CITY           SKY/WX    TMP DP  RH WIND       PRES   REMARKS
LA CROSSE      MOSUNNY   81  53  37 NW9       29.96F HX  80
SPARTA         MOSUNNY   79  47  31 N8        29.98S
VIROQUA        PTSUNNY   77  54  45 N6        30.00F
BOSCOBEL       PTSUNNY   81  52  36 NW6       29.96F HX  80
PRAIRIE DU CHI PTSUNNY   79  48  34 NW5       29.96F
PLATTEVILLE    MOSUNNY   75  55  48 NW6       29.98F
$$

WIZ056-057-062-063-064-067-068-042300-
SOUTH CENTRAL WISCONSIN

CITY           SKY/WX    TMP DP  RH WIND       PRES   REMARKS
REEDSBURG      MOSUNNY   79  51  37 W8        29.97S
BARABOO/DELLS  MOSUNNY   79  46  30 W10       29.97F
LONE ROCK      NOT AVBL
MINERAL POINT  PTSUNNY   77  48  36 NW5       29.99F
MADISON        PTSUNNY   79  53  40 VRB7      29.97S
MIDDLETON      PTSUNNY   81  48  32 W8        29.98F HX  80
WATERTOWN      MOSUNNY   78  54  44 W9        29.96F
MONROE         PTSUNNY   77  52  41 NW5       29.98F
JANESVILLE     PTSUNNY   79  52  38 W9        29.97F
$$

WIZ051-052-058>065-066-070>072-042300-
SOUTHEAST WISCONSIN

CITY           SKY/WX    TMP DP  RH WIND       PRES   REMARKS
MILWAUKEE      PTSUNNY   79  51  37 N12G17    29.96S
WAUKESHA       MOSUNNY   75  48  38 W14G21    29.98F
MILWAUKEE/TIMM MOSUNNY   79  46  31 W12G18    29.96F
RACINE         MOSUNNY   77  55  46 NE5       29.97F
BURLINGTON     MOSUNNY   77  48  35 NW10      29.97S
KENOSHA        MOSUNNY   78  53  41 NW9       29.96F
FOND DU LAC    SUNNY     78  53  41 W10       29.96R
SHEBOYGAN      MOSUNNY   78  53  41 NW10      29.95S
WEST BEND      CLOUDY    77  46  33 W12       29.96F
JUNEAU         CLOUDY    76  53  44 W6        29.97F
$$

LSZ147-162-042300-
LAKE SUPERIOR

STATION/POSITION TIME  TEMP    WIND        PRES    WAVE
                       AIR SEA DIR/SP/G            HT/PER
                 (UTC) (F)     (DEG/KT/KT) (MB)    (FT/S)
W MID LAKE BUOY  2050   58 58   60/  4/  6 1016.2R   0
DEVILS ISLAND    2100   65     340/  2/  4 1015.8R
PORT WING        2140   70      40/  9/ 10 1015.2F
SAXON HARBOR     2140   67      50/  8/  9 1015.6R
$$

LMZ867-665-643>646-042300-
LAKE MICHIGAN

STATION/POSITION TIME  TEMP    WIND        PRES    WAVE
                       AIR SEA DIR/SP/G            HT/PER
                 (UTC) (F)     (DEG/KT/KT) (MB)    (FT/S)
CHAMBERS ISLAND  2100   66      40/  5/  9 1013.9R
N MID LAKE BUOY  2050   63 70  300/  2/  4 1014.0R   0
NORTHPORT PIER   2100   67      30/  3/  5 1014.2S
SISTER BAY       2118   73      20/  9/ 10   N/A
ALGOMA LAKESHORE 2112          320/  8/ 11   N/A
KEWAUNEE LAKESHO 2100   74     180/ 10/ 11 1013.4S
SHEBOYGAN LAKESH 2100   75     310/ 11/ 17 1014.1F
PORT WASHINGTON  2140   80     280/  8/ 13 1014.6F
ATWATER BUOY     2100   69 55  320/ 10/ 12 1015.8R
MILWAUKEE LAKESH 2100   76     300/  8/ 12   N/A
KENOSHA   LAKESH 2100   78     280/  9/ 15 1014.2R
$$

TC  - TEMPERATURE IN CELSIUS
VSB - VISIBILITY IN STATUTE MILES
WCI - WIND CHILL INDEX
HX  - HEAT INDEX




USA.gov is the U.S. government's official web portal to all federal, state and local government web resources and services.